map of KBDN home
Great Circle Mapper logo
KBDN - Airport
Location
City:  Bend, Oregon, United States
Name:Bend Municipal Airport
ICAO:KBDN
FAA:BDN

Details
Type:Airport (Airfield)
Use:Public/Civil
Latitude:4405'40"N (44.094556)
Longitude:12112'01"W (-121.200221)
Datum:WGS 1984
Elevation:3460 ft (1055 m)
Runways:1
Longest:5200 × 75 ft (1585 × 23 m), paved

Time
Time Zone:UTC-8 (DST-7)
Local Time:

Weather
METAR:KBDN 010735Z AUTO 31005KT 10SM SCT040 BKN050 04/02 A2980 RMK AO2
TAF:KBDN 010529Z 0106/0206 31005KT P6SM SCT035 OVC050
FM010900 31007KT P6SM SCT020 BKN050 OVC150
FM011500 31007KT P6SM SCT030 BKN150
FM012100 34012G19KT P6SM SCT070 SCT150
FM020200 31007KT P6SM SCT010

Related Locations
Nearby:
Farthest:FTU: 10959 mi / 17637 km
Tolagnaro [Maurillac (Fort Dauphin)], MG

Find:

   beyond  
but within

Other Information
Maps:
NOTAMs:
Links:
Sources:

  
flag of United States
flag of Oregon
  

Sectional Chart

Flight Planning
at skyvector.com

Satellite Image

Google Maps Satellite View

 

Copyright © 2004-2014 Karl L. Swartz. All rights reserved.
The Great Circle Mapper name and logo are trademarks of the Great Circle Mapper.
All other trademarks mentioned herein belong to their respective owners.
Please see credits for attibutions and further copyright information.

  Follow gcmap on Facebook Follow gcmap on Twitter

hCard Microformat

Geo Microformat